Starlink 3672

operational
NORAD ID: 51974 Int'l Des: 2022-025 Owner: SPXS Country: US Constellation: starlink
LEOCIRCULARSTARLINK_TYPE

关于 Starlink 3672

正在加载描述...

实时位置

正在加载3D地球...

即将过境

高度历史

Altitude vs Time

uPlot chart will show altitude changes over time

两行轨道根数

1 51974U 22025U 26035.11164473 .00000016 00000-0 19986-4 0 9994
2 51974 53.0554 181.6218 0001317 88.9924 271.1216 15.06394267215853
Epoch: Feb 4, 2026 • Age: 12 hours

当前状态

高度 548.0 km
速度 7.59 km/s
星下点 27.56°N, 15.31°W
发射日期 Mar 9, 2022
运行时间 3.9 years
类型 internet

技术详情

分类 Payload
质量 297.00 kg
干质量 275.00 kg
总质量 297.00 kg
长度 0.20 m
直径 2.80 m
跨度 9.00 m
形状 Box + pan
制造商 SPXS
平台类型 Starlink
阶段状态 In Orbit
所有者/国家 SPXS/US

大型星座

Loading constellations...